When you browse on this site, cookies collect data to enhance your experience and personalize the content and advertising you see.
Visit our Privacy Policy to learn more. By continuing to use the site, you agree to this use of cookies and data.
  • en Suisse
  • Liste des pays
  • À 7 jours
  • Température de l'eau
  • Carte météo
  • Widgets météo
  • user-avatar
    Se connecter

    Météo par heure à Sharan

    Ce jour, 17 Octobre, Jeudi

    Heure Température Précipitation Vent Pression Humidité
    00:00 +11°C° 0 mm 3 m/s 589 mmHg 29%
    01:00 +12°C° 0 mm 2 m/s 589 mmHg 31%
    02:00 +10°C° 0 mm 2 m/s 588 mmHg 32%
    03:00 +10°C° 0 mm 2 m/s 588 mmHg 33%
    04:00 +9°C° 0 mm 2 m/s 587 mmHg 34%
    05:00 +9°C° 0 mm 1 m/s 587 mmHg 35%
    06:00 +10°C° 0 mm 1 m/s 588 mmHg 33%
    07:00 +11°C° 0 mm 1 m/s 588 mmHg 31%
    08:00 +12°C° 0 mm 1 m/s 589 mmHg 29%
    09:00 +14°C° 0 mm 2 m/s 590 mmHg 26%
    10:00 +15°C° 0 mm 2 m/s 590 mmHg 22%
    11:00 +17°C° 0 mm 3 m/s 591 mmHg 19%
    12:00 +18°C° 0 mm 3 m/s 591 mmHg 18%
    13:00 +19°C° 0 mm 4 m/s 590 mmHg 17%
    14:00 +20°C° 0 mm 5 m/s 590 mmHg 15%
    15:00 +19°C° 0 mm 5 m/s 590 mmHg 15%
    16:00 +19°C° 0 mm 5 m/s 590 mmHg 15%
    17:00 +19°C° 0 mm 5 m/s 590 mmHg 15%
    18:00 +16°C° 0 mm 5 m/s 589 mmHg 17%
    19:00 +15°C° 0 mm 5 m/s 589 mmHg 19%
    20:00 +13°C° 0 mm 4 m/s 589 mmHg 20%
    21:00 +12°C° 0 mm 4 m/s 589 mmHg 22%
    22:00 +11°C° 0 mm 3 m/s 588 mmHg 24%
    23:00 +10°C° 0 mm 2 m/s 588 mmHg 26%

    Demain, 18 Octobre, Vendredi

    Heure Température Précipitation Vent Pression Humidité
    00:00 +10°C° 0 mm 2 m/s 588 mmHg 27%
    01:00 +10°C° 0 mm 1 m/s 587 mmHg 29%
    02:00 +10°C° 0 mm 1 m/s 587 mmHg 30%
    03:00 +9°C° 0 mm 1 m/s 587 mmHg 32%
    04:00 +9°C° 0 mm 1 m/s 586 mmHg 34%
    05:00 +7°C° 0 mm 0 m/s 586 mmHg 36%
    06:00 +8°C° 0 mm 0 m/s 587 mmHg 34%
    07:00 +11°C° 0 mm 1 m/s 588 mmHg 32%
    08:00 +12°C° 0 mm 1 m/s 589 mmHg 30%
    09:00 +14°C° 0 mm 1 m/s 590 mmHg 28%
    10:00 +15°C° 0 mm 1 m/s 590 mmHg 26%
    11:00 +18°C° 0 mm 1 m/s 591 mmHg 24%
    12:00 +16°C° 0.1 mm 2 m/s 590 mmHg 28%
    13:00 +16°C° 0.1 mm 3 m/s 590 mmHg 32%
    14:00 +14°C° 0.1 mm 4 m/s 589 mmHg 36%
    15:00 +13°C° 0.3 mm 5 m/s 588 mmHg 42%
    16:00 +12°C° 0.3 mm 5 m/s 588 mmHg 49%
    17:00 +10°C° 0.3 mm 6 m/s 588 mmHg 56%
    18:00 +10°C° 0.1 mm 5 m/s 588 mmHg 57%
    19:00 +10°C° 0.1 mm 4 m/s 588 mmHg 58%
    20:00 +10°C° 0.1 mm 3 m/s 589 mmHg 59%
    21:00 +10°C° 0 mm 2 m/s 589 mmHg 60%
    22:00 +9°C° 0 mm 2 m/s 589 mmHg 60%
    23:00 +10°C° 0 mm 1 m/s 588 mmHg 61%

    Après-demain, 19 Octobre, Samedi

    Heure Température Précipitation Vent Pression Humidité
    00:00 +10°C° 0 mm 1 m/s 588 mmHg 61%
    01:00 +9°C° 0 mm 1 m/s 588 mmHg 61%
    02:00 +8°C° 0 mm 0 m/s 587 mmHg 61%
    03:00 +7°C° 0 mm 0 m/s 587 mmHg 61%
    04:00 +7°C° 0 mm 0 m/s 587 mmHg 62%
    05:00 +7°C° 0 mm 0 m/s 587 mmHg 62%
    06:00 +8°C° 0 mm 0 m/s 588 mmHg 57%
    07:00 +9°C° 0 mm 0 m/s 589 mmHg 52%
    08:00 +10°C° 0 mm 0 m/s 590 mmHg 47%
    09:00 +12°C° 0 mm 0 m/s 591 mmHg 41%
    10:00 +14°C° 0 mm 1 m/s 591 mmHg 35%
    11:00 +16°C° 0 mm 1 m/s 592 mmHg 30%
    12:00 +16°C° 0 mm 2 m/s 592 mmHg 26%
    13:00 +17°C° 0 mm 2 m/s 592 mmHg 22%
    14:00 +18°C° 0 mm 3 m/s 592 mmHg 19%
    15:00 +18°C° 0 mm 3 m/s 591 mmHg 19%
    16:00 +18°C° 0 mm 3 m/s 591 mmHg 19%
    17:00 +18°C° 0 mm 3 m/s 591 mmHg 19%
    18:00 +16°C° 0 mm 3 m/s 590 mmHg 23%
    19:00 +15°C° 0 mm 2 m/s 590 mmHg 27%
    20:00 +14°C° 0 mm 1 m/s 590 mmHg 30%
    21:00 +13°C° 0 mm 1 m/s 590 mmHg 35%
    22:00 +12°C° 0 mm 1 m/s 590 mmHg 39%
    23:00 +12°C° 0 mm 1 m/s 590 mmHg 43%

    20 Octobre, Dimanche

    Heure Température Précipitation Vent Pression Humidité
    00:00 +11°C° 0 mm 1 m/s 589 mmHg 46%
    01:00 +10°C° 0 mm 1 m/s 589 mmHg 48%
    02:00 +9°C° 0 mm 0 m/s 588 mmHg 51%
    03:00 +8°C° 0 mm 0 m/s 588 mmHg 53%
    04:00 +8°C° 0 mm 0 m/s 588 mmHg 54%
    05:00 +7°C° 0 mm 0 m/s 587 mmHg 56%
    06:00 +9°C° 0 mm 0 m/s 588 mmHg 52%
    07:00 +10°C° 0 mm 0 m/s 589 mmHg 47%
    08:00 +11°C° 0 mm 0 m/s 590 mmHg 43%
    09:00 +14°C° 0 mm 1 m/s 591 mmHg 37%
    10:00 +15°C° 0 mm 1 m/s 591 mmHg 32%
    11:00 +16°C° 0 mm 2 m/s 592 mmHg 26%
    12:00 +17°C° 0 mm 2 m/s 591 mmHg 23%
    13:00 +18°C° 0 mm 3 m/s 591 mmHg 21%
    14:00 +19°C° 0 mm 3 m/s 591 mmHg 18%
    15:00 +19°C° 0 mm 3 m/s 591 mmHg 17%
    16:00 +18°C° 0 mm 4 m/s 591 mmHg 16%
    17:00 +18°C° 0 mm 4 m/s 591 mmHg 14%
    18:00 +17°C° 0 mm 3 m/s 590 mmHg 17%
    19:00 +14°C° 0 mm 3 m/s 590 mmHg 20%
    20:00 +14°C° 0 mm 2 m/s 590 mmHg 23%
    21:00 +13°C° 0 mm 2 m/s 589 mmHg 23%
    22:00 +12°C° 0 mm 2 m/s 589 mmHg 23%
    23:00 +11°C° 0 mm 1 m/s 589 mmHg 24%

    21 Octobre, Lundi

    Heure Température Précipitation Vent Pression Humidité
    00:00 +10°C° 0 mm 1 m/s 588 mmHg 24%
    01:00 +9°C° 0 mm 1 m/s 588 mmHg 25%
    02:00 +9°C° 0 mm 1 m/s 587 mmHg 25%
    03:00 +8°C° 0 mm 1 m/s 587 mmHg 26%
    04:00 +7°C° 0 mm 0 m/s 587 mmHg 28%
    05:00 +6°C° 0 mm 0 m/s 586 mmHg 29%
    06:00 +8°C° 0 mm 0 m/s 587 mmHg 27%
    07:00 +9°C° 0 mm 0 m/s 588 mmHg 26%
    08:00 +10°C° 0 mm 0 m/s 589 mmHg 25%
    09:00 +13°C° 0 mm 1 m/s 590 mmHg 24%
    10:00 +14°C° 0 mm 1 m/s 590 mmHg 23%
    11:00 +16°C° 0 mm 1 m/s 591 mmHg 22%
    12:00 +18°C° 0 mm 1 m/s 591 mmHg 19%
    13:00 +18°C° 0 mm 2 m/s 590 mmHg 16%
    14:00 +19°C° 0 mm 2 m/s 590 mmHg 13%
    15:00 +19°C° 0 mm 2 m/s 590 mmHg 13%
    16:00 +18°C° 0 mm 3 m/s 590 mmHg 12%
    17:00 +18°C° 0 mm 3 m/s 589 mmHg 12%
    18:00 +17°C° 0 mm 3 m/s 589 mmHg 13%
    19:00 +14°C° 0 mm 3 m/s 589 mmHg 14%
    20:00 +13°C° 0 mm 3 m/s 588 mmHg 16%
    21:00 +12°C° 0 mm 3 m/s 588 mmHg 17%
    22:00 +11°C° 0 mm 3 m/s 588 mmHg 18%
    23:00 +10°C° 0 mm 2 m/s 587 mmHg 19%

    22 Octobre, Mardi

    Heure Température Précipitation Vent Pression Humidité
    00:00 +9°C° 0 mm 2 m/s 587 mmHg 20%
    01:00 +8°C° 0 mm 2 m/s 586 mmHg 22%
    02:00 +9°C° 0 mm 1 m/s 586 mmHg 23%
    03:00 +8°C° 0 mm 1 m/s 586 mmHg 24%
    04:00 +8°C° 0 mm 1 m/s 585 mmHg 25%
    05:00 +6°C° 0 mm 0 m/s 585 mmHg 26%
    06:00 +7°C° 0 mm 0 m/s 586 mmHg 24%
    07:00 +9°C° 0 mm 0 m/s 587 mmHg 21%
    08:00 +10°C° 0 mm 0 m/s 588 mmHg 19%
    09:00 +11°C° 0 mm 0 m/s 588 mmHg 17%
    10:00 +14°C° 0 mm 1 m/s 589 mmHg 16%
    11:00 +16°C° 0 mm 1 m/s 589 mmHg 14%
    12:00 +17°C° 0 mm 2 m/s 589 mmHg 13%
    13:00 +18°C° 0 mm 3 m/s 589 mmHg 13%
    14:00 +19°C° 0 mm 3 m/s 589 mmHg 12%
    15:00 +18°C° 0 mm 3 m/s 589 mmHg 12%
    16:00 +18°C° 0 mm 3 m/s 588 mmHg 12%
    17:00 +18°C° 0 mm 3 m/s 588 mmHg 12%
    18:00 +17°C° 0 mm 4 m/s 588 mmHg 15%
    19:00 +15°C° 0 mm 5 m/s 588 mmHg 17%
    20:00 +13°C° 0 mm 5 m/s 588 mmHg 19%
    21:00 +12°C° 0 mm 5 m/s 587 mmHg 22%
    22:00 +11°C° 0 mm 4 m/s 587 mmHg 24%
    23:00 +10°C° 0 mm 3 m/s 586 mmHg 26%
    Voir plus